Regional Weather Roundup
Issued by NWS

Current Version | Previous Version | Text Only | Print | Product List | Glossary On
Versions: 1 2 3 4 5 6 7 8 9 10 11 12 13 14 15 16 17 18 19 20 21 22 23 24 25 26 27 28 29 30 31 32 33 34 35 36 37 38 39 40 41 42 43 44 45 46 47 48 49 50
000
ASUS43 KFSD 010610
RWRSD

WEATHER ROUNDUP FOR SOUTH DAKOTA
NATIONAL WEATHER SERVICE SIOUX FALLS SD
1200 AM CST MON MAR 01 2021

NOTE: "FAIR" INDICATES FEW OR NO CLOUDS BELOW 12,000 FEET WITH NO
SIGNIFICANT WEATHER AND/OR OBSTRUCTIONS TO VISIBILITY.


SDZ001>005-009-010-012>017-010700-
NORTHWEST AND NORTH CENTRAL SOUTH DAKOTA

CITY           SKY/WX    TMP DP  RH WIND       PRES   REMARKS
BUFFALO          N/A     28  16  60 W15       30.00R WCI  16
FAITH            N/A     29  17  61 W15       30.02R WCI  18
MOBRIDGE       CLEAR     25  15  66 N10       29.98R WCI  15
$$

SDZ012>016-024>037-041>051-057-063-072>074-010700-
SOUTHWEST AND SOUTH CENTRAL SOUTH DAKOTA

CITY           SKY/WX    TMP DP  RH WIND       PRES   REMARKS
RAPID CTY ARPT CLEAR     17   9  70 CALM      30.08R
PIERRE         CLEAR     26  18  71 W13       30.03S WCI  15
CUSTER         CLEAR     22   8  55 W8        30.05R WCI  12
ELLSWORTH AFB  MOCLDY    25  13  59 W8        30.07R WCI  16
PHILIP         CLEAR     14  10  84 W9        30.08R WCI   2
PINE RIDGE     CLEAR     24  16  71 CALM      30.12R
SPEARFISH      CLOUDY    34  14  44 W17G23    30.06R WCI  23
WINNER         CLEAR     27  16  63 SW9       30.06S WCI  18
$$

SDZ004>011-016>023-039-040-010700-
NORTHEAST SOUTH DAKOTA

CITY           SKY/WX    TMP DP  RH WIND       PRES   REMARKS
ABERDEEN       CLOUDY    25  17  72 NE20G28   30.05R WCI  11
WATERTOWN      MOCLDY    16  13  88 S9        30.00R WCI   4
BROOKINGS      CLOUDY    15  13  91 S8        30.03F WCI   4
SISSETON         N/A     20  13  74 NE12      30.10R WCI   8
$$

SDZ017-020-022-023-036>040-048>070-010700-
SOUTHEAST SOUTH DAKOTA

CITY           SKY/WX    TMP DP  RH WIND       PRES   REMARKS
SIOUX FALLS    MOCLDY    24  18  77 SW6       30.07F WCI  17
HURON          CLOUDY    21  18  88 S5        30.03R WCI  15
CHAMBERLAIN    CLEAR     25  21  84 W7        30.06R WCI  17
MITCHELL       PTCLDY    23  17  78 S9        30.06F WCI  13
YANKTON        CLEAR     20  17  88 SE3       30.10F
$$

ABBREVIATIONS USED IN REMARKS
   TC - TEMPERATURE IN CELSIUS
  WCI - WIND CHILL INDEX
   HX - HEAT INDEX
  VSB - VISIBILITY




USA.gov is the U.S. government's official web portal to all federal, state and local government web resources and services.